Location: Unspecified
(0.0000°N, 0.0000°E)
Time: 03:15:02
(UTC+00:00)

Envisat - Pass Details

Date: 23 February 2021
Orbit: 764 x 766 km, 98.1° (Epoch: 24 February)

Event Time Altitude Azimuth Distance (km) Brightness Sun altitude
Rises 05:08:15 0° 16° (NNE) 3,213 6.3 -16.0°
Reaches altitude 10° 05:10:33 10° 18° (NNE) 2,290 5.6 -15.5°
Maximum altitude 05:15:35 73° 102° (ESE) 800 3.3 -14.2°
Drops below altitude 10° 05:20:38 10° 186° (S) 2,301 5.5 -13.0°
Sets 05:22:57 0° 188° (S) 3,230 6.3 -12.4°
